Location: Kumla
(59.1265°N, 15.1401°E)
Time: 19:14:39
(UTC+01:00)

Vanguard 1 Rocket - Pass Details

Date: 03 December 2023
Orbit: 654 x 4218 km, 34.3° (Epoch: 21 February)

Event Time Altitude Azimuth Distance (km) Brightness Sun altitude
Rises 05:50:27 0° 222° (SW) 7,715 11.8 -18.6°
Reaches altitude 10° 05:58:30 10° 208° (SSW) 6,035 11.4 -17.6°
Maximum altitude 06:08:21 18° 173° (S) 4,329 11.1 -16.4°
Drops below altitude 10° 06:15:23 10° 135° (SE) 4,128 11.7 -15.5°
Sets 06:19:19 0° 117° (ESE) 4,602 12.8 -15.1°
